EW1362 Weather Reports


time (UTC)temp
C
wind
direction
speed
KPH
gust
KPH
rain 1hr
cm
rain 24hr
cm
rain mn
cm
humidity
%
barometer
mb
20260503200151 16 201 1.6 16.1 0.00 0.00 0.00 49 1014.7
20260503195646 16 200 8.0 17.7 0.00 0.00 0.00 47 1014.7
20260503195142 16 200 8.0 17.7 0.00 0.00 0.00 47 1014.8
20260503194636 16 195 4.8 22.5 0.00 0.00 0.00 48 1014.9
20260503194153 16 176 9.7 20.9 0.00 0.00 0.00 47 1015.3
20260503193649 16 201 4.8 27.4 0.00 0.00 0.00 47 1015.4
20260503193144 16 202 11.3 27.4 0.00 0.00 0.00 48 1015.3
20260503192638 16 360 6.4 22.5 0.00 0.00 0.00 48 1014.8
20260503192134 16 194 8.0 25.7 0.00 0.00 0.00 46 1015.0
20260503191630 16 196 14.5 24.1 0.00 0.00 0.00 47 1015.1
20260503191146 16 192 16.1 33.8 0.00 0.00 0.00 46 1015.0
20260503190642 16 192 16.1 33.8 0.00 0.00 0.00 47 1015.1
20260503190136 16 202 8.0 22.5 0.00 0.00 0.00 48 1015.2
20260503185648 16 200 9.7 22.5 0.00 0.00 0.00 48 1015.4
20260503185141 16 194 8.0 24.1 0.00 0.00 0.00 48 1015.2
20260503184636 16 190 8.0 20.9 0.00 0.00 0.00 47 1015.4
20260503184130 16 192 8.0 20.9 0.00 0.00 0.00 48 1015.7
20260503183645 16 199 3.2 17.7 0.00 0.00 0.00 48 1015.7
20260503183140 16 196 4.8 19.3 0.00 0.00 0.00 49 1016.0
20260503182635 15 192 9.7 19.3 0.00 0.00 0.00 48 1016.1
20260503182149 15 190 8.0 19.3 0.00 0.00 0.00 47 1016.2
20260503181643 15 198 4.8 19.3 0.00 0.00 0.00 48 1016.2
20260503181138 15 197 3.2 17.7 0.00 0.00 0.00 48 1016.4
20260503180634 15 194 4.8 17.7 0.00 0.00 0.00 47 1016.6
20260503180152 15 200 6.4 22.5 0.00 0.00 0.00 47 1016.7
20260503175643 15 201 8.0 22.5 0.00 0.00 0.00 46 1016.6
20260503175139 15 196 12.9 20.9 0.00 0.00 0.00 46 1016.8
20260503174633 15 191 6.4 17.7 0.00 0.00 0.00 46 1016.9
20260503174146 15 196 8.0 20.9 0.00 0.00 0.00 46 1017.0
20260503173641 15 194 6.4 20.9 0.00 0.00 0.00 44 1017.3
20260503173137 15 212 6.4 20.9 0.00 0.00 0.00 45 1017.3
20260503172633 15 201 6.4 20.9 0.00 0.00 0.00 45 1017.4
20260503172130 15 194 12.9 20.9 0.00 0.00 0.00 45 1017.3
20260503171646 15 192 4.8 19.3 0.00 0.00 0.00 45 1017.4
20260503171140 15 189 8.0 19.3 0.00 0.00 0.00 43 1017.5
20260503170636 15 200 8.0 27.4 0.00 0.00 0.00 44 1017.4
20260503170130 15 190 9.7 27.4 0.00 0.00 0.00 44 1017.3
20260503160143 13 203 6.4 24.1 0.00 0.00 0.00 47 1018.4
20260503150636 12 194 4.8 17.7 0.00 0.00 0.00 53 1018.9
20260503150152 12 200 8.0 17.7 0.00 0.00 0.00 53 1018.7
20260503140144 10 192 9.7 20.9 0.00 0.00 0.00 58 1019.2
20260503131129 8 198 6.4 16.1 0.00 0.00 0.00 63 1019.2
20260503130645 8 194 6.4 16.1 0.00 0.00 0.00 64 1019.3
20260503130139 8 194 4.8 14.5 0.00 0.00 0.00 65 1019.3
20260503120131 5 185 3.2 9.7 0.00 0.00 0.00 76 1019.0
20260503110639 4 174 1.6 4.8 0.00 0.00 0.00 79 1018.7
20260503110133 3 173 0.0 3.2 0.00 0.00 0.00 79 1018.8
20260503100209 3 71 0.0 3.2 0.00 0.00 0.00 79 1018.4
20260503090132 3 62 0.0 0.0 0.00 0.00 0.00 80 1018.3
20260503081633 3 62 0.0 0.0 0.00 0.00 0.00 81 1018.3
20260503081208 3 62 0.0 0.0 0.00 0.00 0.00 81 1018.3
20260503080643 3 62 0.0 0.0 0.00 0.00 0.00 81 1018.4
20260503080158 3 62 0.0 0.0 0.00 0.00 0.00 81 1018.4
20260503072629 3 62 0.0 0.0 0.00 0.00 0.00 80 1018.3
20260503072145 3 62 0.0 0.0 0.00 0.00 0.00 80 1018.4
20260503071642 3 62 0.0 0.0 0.00 0.00 0.00 80 1018.4
20260503071137 3 62 0.0 0.0 0.00 0.00 0.00 80 1018.3
20260503070630 3 62 0.0 0.0 0.00 0.00 0.00 80 1018.4
20260503070204 3 62 0.0 0.0 0.00 0.00 0.00 80 1018.4
20260503060206 3 62 0.0 0.0 0.00 0.00 0.00 80 1018.8
20260503054650 4 62 0.0 0.0 0.00 0.00 0.00 79 1018.8
20260503054144 4 62 0.0 0.0 0.00 0.00 0.00 79 1018.9
20260503053658 4 62 0.0 0.0 0.00 0.00 0.00 79 1018.9
20260503053131 4 62 0.0 0.0 0.00 0.00 0.00 79 1018.9
20260503052645 4 62 0.0 0.0 0.00 0.00 0.00 78 1018.9
20260503052139 4 62 0.0 0.0 0.00 0.00 0.00 78 1018.9
20260503051633 4 62 0.0 0.0 0.00 0.00 0.00 77 1018.9
20260503051209 4 62 0.0 0.0 0.00 0.00 0.00 77 1018.9
20260503050644 4 62 0.0 0.0 0.00 0.00 0.00 77 1019.0
20260503050140 4 62 0.0 0.0 0.00 0.00 0.00 77 1019.0
20260503045638 4 62 0.0 0.0 0.00 0.00 0.00 76 1019.0
20260503045132 4 62 0.0 0.0 0.00 0.00 0.00 76 1019.0
20260503044707 4 62 0.0 0.0 0.00 0.00 0.00 75 1019.0
20260503044138 4 62 0.0 0.0 0.00 0.00 0.00 75 1019.0
20260503043634 4 62 0.0 0.0 0.00 0.00 0.00 75 1019.0
20260503043130 5 62 0.0 0.0 0.00 0.00 0.00 75 1018.9
20260503042646 5 62 0.0 0.0 0.00 0.00 0.00 75 1018.9
20260503042142 5 62 0.0 0.0 0.00 0.00 0.00 74 1018.9
20260503041629 5 62 0.0 0.0 0.00 0.00 0.00 74 1018.8
20260503041142 5 62 0.0 0.0 0.00 0.00 0.00 73 1018.8
20260503040637 5 62 0.0 0.0 0.00 0.00 0.00 73 1018.8
20260503040132 5 62 0.0 0.0 0.00 0.00 0.00 72 1018.8
20260503035656 5 62 0.0 0.0 0.00 0.00 0.00 72 1018.8
20260503035133 5 62 0.0 0.0 0.00 0.00 0.00 71 1018.8
20260503034648 5 62 0.0 0.0 0.00 0.00 0.00 71 1018.9
20260503034142 5 62 0.0 0.0 0.00 0.00 0.00 71 1018.9
20260503033637 5 62 0.0 0.0 0.00 0.00 0.00 70 1018.9
20260503033133 5 62 0.0 0.0 0.00 0.00 0.00 70 1019.0
20260503032630 5 62 0.0 0.0 0.00 0.00 0.00 69 1019.0
20260503032147 6 62 0.0 0.0 0.00 0.00 0.00 69 1019.0
20260503031644 6 62 0.0 0.0 0.00 0.00 0.00 68 1018.9
20260503031139 6 62 0.0 0.0 0.00 0.00 0.00 67 1019.0
20260503030633 6 62 0.0 0.0 0.00 0.00 0.00 67 1019.0
20260503030129 6 62 0.0 0.0 0.00 0.00 0.00 66 1019.1
20260503025645 6 62 0.0 0.0 0.00 0.00 0.00 65 1019.0
20260503025141 6 62 0.0 0.0 0.00 0.00 0.00 65 1019.1
20260503024700 6 62 0.0 0.0 0.00 0.00 0.00 64 1019.0
20260503024137 6 62 0.0 0.0 0.00 0.00 0.00 64 1019.0
20260503023651 6 62 0.0 0.0 0.00 0.00 0.00 64 1018.9
20260503023145 7 62 0.0 0.0 0.00 0.00 0.00 63 1018.8
20260503022640 7 62 0.0 0.0 0.00 0.00 0.00 62 1018.9
20260503022136 7 62 0.0 0.0 0.00 0.00 0.00 62 1018.8
20260503021650 7 62 0.0 0.0 0.00 0.00 0.00 60 1018.7
20260503021206 7 62 0.0 0.0 0.00 0.00 0.00 59 1018.7
20260503020642 7 62 0.0 0.0 0.00 0.00 0.00 58 1018.7
20260503020136 7 62 0.0 0.0 0.00 0.00 0.00 57 1018.6
20260503015631 7 62 0.0 0.0 0.00 0.00 0.00 56 1018.5
20260503015147 8 62 0.0 0.0 0.00 0.00 0.00 55 1018.5
20260503014643 8 62 0.0 0.0 0.00 0.00 0.00 54 1018.5
20260503014138 8 62 0.0 0.0 0.00 0.00 0.00 53 1018.4
20260503013635 8 62 0.0 0.0 0.00 0.00 0.00 51 1018.3
20260503013131 8 62 0.0 0.0 0.00 0.00 0.00 51 1018.3
20260503012646 8 62 0.0 0.0 0.00 0.00 0.00 49 1018.3
20260503012202 8 62 0.0 0.0 0.00 0.00 0.00 49 1018.3
20260503011637 8 62 0.0 0.0 0.00 0.00 0.00 48 1018.3
20260503011132 9 62 0.0 0.0 0.00 0.00 0.00 47 1018.2
20260503010644 9 62 0.0 0.0 0.00 0.00 0.00 47 1018.2
20260503010141 9 62 0.0 1.6 0.00 0.00 0.00 47 1018.2
20260503005656 9 62 0.0 1.6 0.00 0.00 0.00 46 1018.2
20260503005151 9 62 0.0 3.2 0.00 0.00 0.00 46 1018.2
20260503004645 10 62 1.6 3.2 0.00 0.00 0.00 46 1018.2
20260503004141 10 62 0.0 4.8 0.00 0.00 0.00 45 1018.1
20260503003637 10 62 1.6 4.8 0.00 0.00 0.00 44 1018.1
20260503003134 10 62 1.6 4.8 0.00 0.00 0.00 44 1018.1
20260503002631 10 63 1.6 6.4 0.00 0.00 0.00 44 1018.1
20260503002146 10 64 1.6 6.4 0.00 0.00 0.00 44 1018.0
20260503001641 10 8 1.6 6.4 0.00 0.00 0.00 44 1018.0
20260503001136 10 8 0.0 11.3 0.00 0.00 0.00 43 1017.8
20260503000633 10 32 3.2 9.7 0.00 0.00 0.00 43 1017.8
20260503000130 10 40 3.2 9.7 0.00 0.00 0.00 43 1017.8
20260502235645 10 52 4.8 9.7 0.00 0.00 0.00 43 1017.8
20260502235203 10 2 3.2 6.4 0.00 0.00 0.00 43 1017.7
20260502234636 10 11 1.6 9.7 0.00 0.00 0.00 42 1017.7
20260502234131 10 8 4.8 9.7 0.00 0.00 0.00 43 1017.8
20260502233707 10 27 3.2 9.7 0.00 0.00 0.00 42 1017.7
20260502233143 10 29 1.6 6.4 0.00 0.00 0.00 42 1017.7
20260502232639 11 29 3.2 8.0 0.00 0.00 0.00 42 1017.7
20260502232156 11 52 1.6 8.0 0.00 0.00 0.00 43 1017.8
20260502231630 11 23 1.6 8.0 0.00 0.00 0.00 43 1017.8
20260502231204 11 46 0.0 12.9 0.00 0.00 0.00 43 1017.9
20260502230639 11 45 3.2 14.5 0.00 0.00 0.00 42 1017.9
20260502230135 11 10 4.8 12.9 0.00 0.00 0.00 42 1017.8
20260502225630 11 47 3.2 16.1 0.00 0.00 0.00 43 1017.8
20260502225146 11 34 6.4 16.1 0.00 0.00 0.00 43 1017.8
20260502224659 11 35 3.2 8.0 0.00 0.00 0.00 43 1017.7
20260502224133 11 46 1.6 9.7 0.00 0.00 0.00 45 1017.7
20260502223629 11 44 3.2 12.9 0.00 0.00 0.00 42 1017.8
20260502223144 11 31 4.8 12.9 0.00 0.00 0.00 43 1017.8
20260502222701 11 320 1.6 4.8 0.00 0.00 0.00 44 1017.7
20260502222155 11 48 0.0 12.9 0.00 0.00 0.00 44 1017.8
20260502221630 11 47 3.2 12.9 0.00 0.00 0.00 43 1017.7
20260502221208 11 51 4.8 8.0 0.00 0.00 0.00 43 1017.7
20260502220703 11 46 1.6 6.4 0.00 0.00 0.00 43 1017.7
20260502220136 11 12 3.2 8.0 0.00 0.00 0.00 42 1017.7
20260502215651 11 351 3.2 11.3 0.00 0.00 0.00 42 1017.8
20260502215146 11 45 4.8 11.3 0.00 0.00 0.00 42 1017.7
20260502214641 11 40 1.6 6.4 0.00 0.00 0.00 42 1017.7
20260502214137 11 42 3.2 8.0 0.00 0.00 0.00 41 1017.7
20260502213633 11 70 3.2 14.5 0.00 0.00 0.00 41 1017.7
20260502213146 12 27 4.8 17.7 0.00 0.00 0.00 43 1017.6
20260502212701 12 2 6.4 17.7 0.00 0.00 0.00 41 1017.6
20260502212136 12 54 3.2 11.3 0.00 0.00 0.00 44 1017.5
20260502211630 12 40 4.8 16.1 0.00 0.00 0.00 41 1017.5
20260502211147 12 51 9.7 16.1 0.00 0.00 0.00 41 1017.4
20260502210642 11 42 4.8 16.1 0.00 0.00 0.00 42 1017.4
20260502210138 11 47 4.8 14.5 0.00 0.00 0.00 42 1017.5
20260502205632 12 42 6.4 17.7 0.00 0.00 0.00 40 1017.5
20260502205146 12 35 3.2 14.5 0.00 0.00 0.00 43 1017.5
20260502204641 12 55 4.8 16.1 0.00 0.00 0.00 44 1017.5
20260502204153 11 31 1.6 12.9 0.00 0.00 0.00 46 1017.5
20260502203648 11 19 3.2 12.9 0.00 0.00 0.00 43 1017.6
20260502203144 12 25 1.6 14.5 0.00 0.00 0.00 43 1017.6
20260502202638 12 347 4.8 19.3 0.00 0.00 0.00 44 1017.6
20260502202134 12 42 6.4 19.3 0.00 0.00 0.00 44 1017.5
20260502201649 12 48 3.2 12.9 0.00 0.00 0.00 44 1017.6
20260502201144 12 48 3.2 16.1 0.00 0.00 0.00 44 1017.6
20260502200640 12 44 4.8 14.5 0.00 0.00 0.00 44 1017.7